Regional Weather Roundup
Issued by NWS Austin/San Antonio, TX

Home | Current Version | Previous Version | Text Only | Print | Product List | Glossary On
Versions: 1 2 3 4 5 6 7 8 9 10 11 12 13 14 15 16 17 18 19 20 21 22 23 24 25 26 27 28 29 30 31 32 33 34 35 36 37 38 39 40 41 42 43 44 45 46 47 48 49 50
000
ASUS44 KEWX 172210
RWREWX
SOUTH TEXAS REGIONAL WEATHER ROUNDUP
NATIONAL WEATHER SERVICE AUSTIN/SAN ANTONIO TX
400 PM CST SUN FEB 17 2019

NOTE: "FAIR" INDICATED FEW OR NO CLOUDS BELOW 12,000 FEET WITH NO
SIGNIFICANT WEATHER AND/OR OBSTRUCTIONS TO VISIBILITY.

* - THESE STATIONS ARE NOT NWS OR FAA STATIONS...AND ARE NOT SUBJECT
    TO NWS AND FAA QUALITY CONTROL.

TXZ171-172-183>190-172300-
TEXAS HILL COUNTRY AND EDWARDS PLATEAU

CITY           SKY/WX    TMP DP  RH WIND       PRES   REMARKS
JUNCTION       SUNNY     63  27  25 E13       29.90S
*LLANO         SUNNY     63  34  34 NE10      29.95S
BURNET         SUNNY     59  34  39 NE12      29.92F
*HORSESHOE BAY SUNNY     61  34  36 NE10      29.91S
*KERRVILLE     SUNNY     64  24  21 NE10G18   29.87F
*FREDERICKSBRG SUNNY     61  33  34 NE9G16    29.89S
*ROCKSPRINGS   SUNNY     64  21  19 E8        29.91S
*BOERNE STAGE  SUNNY     64  30  27 NE13G18   29.87S
*CASTROVILLE   SUNNY     73  25  16 NE15      29.84S
HONDO          SUNNY     77  30  17 NE13      29.82F
*UVALDE        SUNNY     74  30  19 E6        29.82S
DEL RIO        SUNNY     74  27  17 MISG      29.81F
LAUGHLIN AFB   SUNNY     74  24  15 NW3       29.81F
CARRIZO SPRGS  SUNNY     77  30  18 E3G9      29.79F
*FAITH RANCH   SUNNY     79  27  14 VRB7G17   29.79F
$$

TXZ173-191>194-202-209-217>225-228-172300-
CENTRAL AND SOUTH CENTRAL TEXAS

CITY           SKY/WX    TMP DP  RH WIND       PRES   REMARKS
GEORGETOWN     SUNNY     59  38  45 N14       29.93S
AUSTIN/BERGSTM MOSUNNY   62  40  44 NE21      29.89S
AUSTIN/MABRY   SUNNY     63  38  39 N8        29.90S
*AUSTIN/EXEC   SUNNY     57  36  44 N20G25    29.91S
*LAGO VISTA    SUNNY     61  28  28 NE10G16   29.90S
SAN MARCOS     SUNNY     65  40  39 NE17      29.88S
NEW BRAUNFELS  SUNNY     67  38  34 NE16      29.85S
RANDOLPH AFB   SUNNY     68  36  30 NE12G18   29.84S
PT SAN ANTONIO SUNNY     70  35  28 NE12G21   29.82S
SAN ANTONIO    MOSUNNY   69  34  27 N17G23    29.84S
STINSON FIELD  SUNNY     73  27  18 NE15G23   29.81S
*LA GRANGE     SUNNY     61  41  48 N12G20    29.86S
*GIDDINGS      SUNNY     60  42  51 N13G20    29.90R
*GONZALES      SUNNY     63  44  50 N10G23    29.86S
$$

TXZ163>164-176>182-195>201-210>213-226-227-235-172300-
SOUTHEAST TEXAS

CITY           SKY/WX    TMP DP  RH WIND       PRES   REMARKS
COLLEGE STN    SUNNY     58  40  51 N20       29.90R
*BRYAN         SUNNY     56  40  55 N14G21    29.92S
*CALDWELL      SUNNY     56  40  53 N13       29.91S
*CROCKETT        N/A     55  41  58 NE12      29.93S
*BRENHAM       SUNNY     60  44  55 N15G26    29.89S
HUNTSVILLE     CLOUDY    53  43  68 NW10      29.89R
CONROE         MOSUNNY   61  46  57 N12       29.87R
HOUSTON BUSH   PTSUNNY   62  49  62 N17       29.84R
HOUSTON HOBBY  PTSUNNY   61  50  67 N14       29.82S
*HOUSTON SW AP CLOUDY    60  51  72 N12G17    29.83S
PEARLAND       CLOUDY    61  54  77 N12       29.83S
HOUSTON HOOKS  FAIR      61  47  59 N12       29.85R
ELLINGTON FLD  PTSUNNY   57  52  82 N14       29.84S
SUGAR LAND     FAIR      64  49  57 N15       29.82F
*HOUSTON EXEC  FAIR      61  48  63 N16       29.86R
*CLEVELAND MUN FAIR      58  47  67 N9G16     29.87S HAZE
*WHARTON       SUNNY     62  48  59 N16       29.83S
*COLUMBUS      FAIR      62  42  48 N14       29.86R
*EAGLE LAKE    CLEAR     60  45  56 N16G22    29.85
$$

TXZ214>216-236>238-172300-
THE UPPER TEXAS COAST

CITY           SKY/WX    TMP DP  RH WIND       PRES   REMARKS
*ORANGE        DRIZZLE   54  54 100 N13       29.84R
PORT ARTHUR    CLOUDY    55  52  89 N17       29.82R
GALVESTON      CLOUDY    57  54  89 N23G30    29.81R
ANGLETON       PTSUNNY   60  53  77 N16       29.81R
*BAY CITY      CLOUDY    63  53  70 N17       29.80S
PALACIOS       MOSUNNY   66  53  63 N23       29.78F
$$

TXZ229>234-239>247-172300-
TEXAS COASTAL BEND AND RIO GRANDE PLAINS

CITY           SKY/WX    TMP DP  RH WIND       PRES   REMARKS
VICTORIA       SUNNY     68  47  46 N15G24    29.81S
*BEEVILLE      SUNNY     76  31  18 NE20      29.79S
ROCKPORT       SUNNY     71  51  49 N15       29.77S
*PORT ARANSAS  SUNNY     68  56  65 N18       29.78F
*PORT LAVACA   SUNNY     69  52  53 NE14      29.80S
*INGLESIDE     SUNNY     73  54  51 NE16G22   29.76F
CORPUS CHRISTI MOSUNNY   76  48  37 N21       29.76S
CORPUS NAS     SUNNY     72  58  61 NE15      29.76F
*ROBSTOWN      NOT AVBL
ALICE          SUNNY     79  41  25 NE18G24   29.76S
KINGSVILLE NAS MOSUNNY   79  47  32 N17       29.75S
COTULLA        SUNNY     77  32  19 NE13      29.79F
LAREDO         SUNNY     81  33  17 NE15G22   29.75F
$$

TXZ248>255-172300-
DEEP SOUTH TEXAS

CITY           SKY/WX    TMP DP  RH WIND       PRES   REMARKS
BROWNSVILLE    CLOUDY    71  66  84 N16G26    29.73S
PORT ISABEL    CLOUDY    66  62  87 N20G25    29.73S
HARLINGEN      CLOUDY    72  62  71 N20       29.73S
*HEBBRONVILLE  SUNNY     77  37  23 NE15      29.76F
MCALLEN        CLOUDY    77  66  68 N13       29.74S
*WESLACO       CLOUDY    72  65  77 NE13G18   29.73
FALFURRIAS     PTSUNNY   79  45  29 NE16      29.73F
EDINBURG       CLOUDY    77  65  65 NE7       29.73F
*ZAPATA        FAIR      82  37  19 NE10G21   29.75S
$$

TXZ213>215-236>238-242>244-246-247-251-254-255-172300-
CMAN STATIONS

STATION/POSITION TIME  TEMP    WIND        PRES    WAVE
                       AIR SEA DIR/SP/G            HT/PER
                 (UTC) (F)     (DEG/KT/KT) (MB)    (FT/S)
SABINE PASS      2136   57 65  360/ 17/ 27 1010.9
SEA RIM ST PARK  2200   54     360/ 16/ 19 1009.4
NORTH JETTY/GLS  2136   56 60   10/ 19/ 20 1008.5
EAGLE POINT      2136   56 63   10/ 13/ 17 1009.8
MORGANS POINT    2148   56 61  360/ 13/ 16 1009.9
PORT O`CONNOR    2142   61 64  360/ 19/ 23 1008.6
PORT ARANSAS     2200   66 61   10/ 18/ 21 1007.7
MALAQUITE BEACH  2142   65 63   10/ 16/ 18 1007.4
BAFFIN BAY       2142   67 69   20/ 17/ 20 1007.9
PORT ISABEL      2142   64 65  360/ 15/ 19 1006.5
$$



USA.gov is the U.S. government's official web portal to all federal, state and local government web resources and services.